Location: Appleton
(44.2618°N, 88.4157°W)
Time: 01:07:11
(UTC+00:00)

Tiros 1 despin weight - Pass Details

Date: 05 March 2021
Orbit: 593 x 641 km, 48.2° (Epoch: 10 April)

Event Time Altitude Azimuth Distance (km) Brightness Sun altitude
Exits shadow 10:43:28 38° 240° (WSW) 972 ? -18.7°
Maximum altitude 10:44:13 41° 215° (SW) 921 ? -18.5°
Drops below altitude 10° 10:48:36 10° 145° (SE) 2,025 ? -17.7°
Sets 10:51:01 0° 138° (SE) 2,930 ? -17.3°
